Overview Statistics Trail Chart Weather Telemetry Raw packets
 

This is the latest recevied weather packets stored in our database for station/object KB2EAR-13. If no packets are shown the sender has not sent any weather packets the latest 10 day(s).

<< 63 64 65 66 67 68 69 >>
Time Temp. Humidity Pressure Rain* Wind** Luminosity Snow
1788203118 25° C 74% 1020.7 hPa 0 mm - - -
1788202817 25° C 75% 1020.8 hPa 0 mm - - -
1788202517 25° C 74% 1020.7 hPa 0 mm - - -
1788202223 25° C 75% 1020.7 hPa 0 mm - - -
1788201917 25° C 75% 1020.8 hPa 0 mm - - -
1788201617 25° C 74% 1020.7 hPa 0 mm - - -
1788201317 25.56° C 75% 1020.7 hPa 0 mm - - -
1788201017 25.56° C 74% 1020.8 hPa 0 mm - - -
1788200717 25.56° C 74% 1020.8 hPa 0 mm - - -
1788200426 25.56° C 74% 1020.8 hPa 0 mm - - -
1788200117 25.56° C 73% 1020.8 hPa 0 mm - - -
1788199818 25° C 74% 1020.9 hPa 0 mm - - -
1788199517 25° C 73% 1020.9 hPa 0 mm - - -
1788199217 25° C 72% 1021 hPa 0 mm - - -
1788198917 25° C 70% 1021.1 hPa 0 mm - - -
1788198617 25.56° C 72% 1021.1 hPa 0 mm - - -
1788198317 25.56° C 73% 1021.1 hPa 0 mm - - -
1788198017 25.56° C 74% 1021.1 hPa 0 mm - - -
1788197717 25.56° C 74% 1020.9 hPa 0 mm - - -
1788197417 25.56° C 76% 1021 hPa 0 mm - - -
1788197117 25° C 74% 1021 hPa 0 mm - - -
1788196817 25° C 75% 1020.9 hPa 0 mm - - -
1788196517 25° C 77% 1020.9 hPa 0 mm - - -
1788196217 24.44° C 77% 1020.9 hPa 0 mm - - -
1788195917 24.44° C 81% 1020.9 hPa 0 mm - - -

* Rain latest hour (hover to see other rain measurements)
** Current wind speed in m/s (hover to see current wind gust speed)